sat.trackr.live / text

‹ back to catalog

STARLINK-30272

NORAD 57860 · 2023-141W

PAYLOAD ACTIVE UNKNOWN

§ Identity

Operator
Country
US
Launch date
2023-09-12
Launch site
AFWTR
Launch vehicle
Mass (kg)
RCS (m²)

Purposes: comms

External: N2YO · Heavens-Above · Gunter

§ Orbital elements

Epoch: 2026-05-25T02:53:43.023840Z

Period
94.01 min
Inclination
53.1617°
Eccentricity
0.0001223
Mean motion
15.31701064 rev/d
Perigee alt
469.9 km
Apogee alt
471.6 km
Semi-major
6,848.9 km
B*
4.1489e-5
RAAN
288.8408°
Arg perigee
105.4966°
Mean anomaly
254.6170°
Rev number
15,203

§ Raw data

STARLINK-302721 57860U 23141W   26145.12063685  .00000923  00000+0  41489-4 0  99992 57860  53.1617 288.8408 0001223 105.4966 254.6170 15.31701064152032

JSON: /api/v1/satellites/57860 · /tle

For live sub-satellite position, see the globe view (requires WebGL).

§ Visibility from observer

Set your observer location to see the next 7 days of passes ≥ 10°. The values pass through the URL so the page stays shareable.

No JS? Fill the form by hand. The geolocation button needs JavaScript.